Regional Weather Roundup
Issued by NWS

Home | Current Version | Previous Version | Text Only | Print | Product List | Glossary Off
Versions: 1 2 3 4 5 6 7 8 9 10 11 12 13 14 15 16 17 18 19 20 21 22 23 24 25 26 27 28 29 30 31 32 33 34 35 36 37 38 39 40 41 42 43 44 45 46 47 48 49 50

000
ASUS45 KABQ 020110
RWRNM
WEATHER ROUNDUP FOR NEW MEXICO
NATIONAL WEATHER SERVICE ALBUQUERQUE NM
700 PM MDT WED APR 01 2015

NOTE: "FAIR" MEANS FEW OR NO CLOUDS BELOW 12,000 FEET AGL WITH NO
       SIGNIFICANT WEATHER OR OBSTRUCTIONS TO VISION.

      THIS PRODUCT IS RELEASED AS TWO VERSIONS.  ONE VERSION NEAR
      THE TOP OF THE HOUR CONTAINING PRELIMINARY DATA FROM ALBUQUERQUE
      AND OTHER STATIONS.  A FINAL VERSION WITH ADDITIONAL DATA IS
      ISSUED ABOUT 10 MINUTES AFTER THE HOUR.

NMZ501-503-504-510>518-020200-
NORTHWEST PLATEAU/NORTHCENTRAL MOUNTAINS

CITY           SKY/WX    TMP DP  RH WIND       PRES   REMARKS
FARMINGTON     CLEAR     67  10  11 W10G23    29.84R
LOS ALAMOS     CLEAR     58  20  22 W13       29.95S
SANTA FE       PTCLDY    63  18  17 W8        29.90S
TAOS           PTCLDY    59  18  20 W14       29.94R
ANGEL FIRE     FAIR      52  21  29 W10       29.99S

$$
NMZ402-403-502-505>509-020200-
WESTCENTRAL MOUNTAINS/SOUTHWEST MOUNTAINS

CITY           SKY/WX    TMP DP  RH WIND       PRES   REMARKS
GALLUP         CLEAR     64  14  14 W23G31    29.94S
GRANTS         PTCLDY    64  16  15 W21G29    29.97R
SILVER CITY    CLEAR     72  23  16 W21G29    29.98S

$$
NMZ407-409-411-412-020200-
SOUTHERN DESERTS

CITY           SKY/WX    TMP DP  RH WIND       PRES   REMARKS
LORDSBURG      FAIR      77  27  15 W15       29.91S
DEMING         PTCLDY    76  31  19 W18G28    29.90F
LAS CRUCES     CLEAR     76  26  15 W23G31    29.90F
HOLLOMAN AFB   PTCLDY    78  25  14 W22G28    29.84S
ALAMOGORDO     PTCLDY    77  23  13 W14       29.87R
T OR C         CLEAR     74  25  16 W15G29    29.88R

$$
NMZ519>523-020200-
CENTRAL VALLEYS/CENTRAL HIGHLANDS

CITY           SKY/WX    TMP DP  RH WIND       PRES   REMARKS
ALBUQUERQUE    PTCLDY    72  22  15 W14       29.87R
DOUBLE EAGLE   PTCLDY    66  21  18 W21G26    29.90S
MORIARTY ARPT  FAIR      65  16  14 NW14      29.92S
CLINES CORNERS PTCLDY    61  20  20 NW16      29.93R
BELEN          FAIR      73  17  12 W21       29.87R
SOCORRO        FAIR      74  23  14 W3        29.86S

$$
NMZ524>526-539-540-020200-
SOUTHCENTRAL MOUNTAINS

CITY           SKY/WX    TMP DP  RH WIND       PRES   REMARKS
RUIDOSO        PTCLDY    63  23  22 SW18G26   29.99S

$$
NMZ527>531-020200-
NORTHEAST HIGHLANDS/NORTHEAST PLAINS

CITY           SKY/WX    TMP DP  RH WIND       PRES   REMARKS
LAS VEGAS      PTCLDY    60  19  20 W16G33    29.91R
RATON          CLEAR     64  16  15 W15       29.81R
CLAYTON        PTCLDY    73  19  13 W16       29.71R

$$
NMZ532>537-020200-
EASTCENTRAL PLAINS

CITY           SKY/WX    TMP DP  RH WIND       PRES   REMARKS
TUCUMCARI      PTCLDY    79  18  10 W21G30    29.72R
CANNON AFB     PTCLDY    76  24  14 W16G24    29.78S
CLOVIS AIRPORT PTCLDY    75  25  15 W14       29.78S

$$
NMZ028-029-538-020200-
SOUTHEAST PLAINS

CITY           SKY/WX    TMP DP  RH WIND       PRES   REMARKS
ROSWELL        CLEAR     80  25  13 W16       29.78R
ARTESIA        CLEAR     79  32  18 W9G16     29.80R
CARLSBAD       CLEAR     80  29  15 W13G24    29.79S
HOBBS          MOCLDY    77  34  20 S8        29.82S


$$


USA.gov is the U.S. government's official web portal to all federal, state and local government web resources and services.